Skip Page Navigation
NASA JPL Caltech
NASA Logo - Jet Propulsion Laboratory + View the NASA Portal
+ Center for Near-Earth Object Studies
JPL Home Earth Solar System Stars & Galaxies Technology
JPL Solar System Dynamics
BODIES ORBITS EPHEMERIDES TOOLS PHYSICAL DATA DISCOVERY FAQ SITE MAP
IMPORTANT: The SSD Announcement email list is now available. Major changes are coming in the near future, including possible hostname and/or URL changes. To be notified of such changes, subscribe to this email list.

Please visit this page for more details.


JPL Small-Body Database Browser
Search: [ help ]  
97613 (2000 EK87)
Classification: Main-belt Asteroid          SPK-ID: 2097613
Ephemeris | Orbit Diagram | Orbital Elements | Mission Design | Physical Parameters | Discovery Circumstances | Close-Approach Data ]

[ show orbit diagram ]
Orbital Elements at Epoch 2458600.5 (2019-Apr-27.0) TDB
Reference: JPL 21 (heliocentric ecliptic J2000)
 Element Value Uncertainty (1-sigma)   Units 
e .1067809220201713 6.4594e-08  
a 3.107686592128974 2.789e-08 au
q 2.775844952471718 1.9841e-07 au
i 7.639207136256592 6.9405e-06 deg
node 341.4106614940029 3.5797e-05 deg
peri 187.2820825869272 4.3773e-05 deg
M 184.5489262141406 2.4154e-05 deg
tp 2459575.731628317944
(2021-Dec-27.23162832)
0.00013615 TDB
period 2001.032986683013
5.48
2.6938e-05
7.375e-08
d
yr
n .1799070791915077 2.4219e-09 deg/d
Q 3.439528231786229 3.0868e-08 au
  Orbit Determination Parameters
   # obs. used (total)      650  
   data-arc span      6733 days (18.43 yr)  
   first obs. used      2000-03-08  
   last obs. used      2018-08-14  
   planetary ephem.      DE431  
   SB-pert. ephem.      SB431-N16  
   condition code      0  
   norm. resid. RMS      .56175  
   source      ORB  
   producer      Otto Matic  
   solution date      2018-Oct-04 03:48:21  

Additional Information
 Earth MOID = 1.78314 au 
 Jupiter MOID = 1.54394 au 
 T_jup = 3.198 
[ show covariance matrix ]

Ephemeris | Orbit Diagram | Orbital Elements | Mission Design | Physical Parameters | Discovery Circumstances | Close-Approach Data ]

Physical Parameter Table
Parameter Symbol Value Units Sigma Reference Notes
absolute magnitude H 14.5   n/a MPO412729  
diameter diameter 5.592 km 0.133 urn:nasa:pds:neowise_diameters_albedos::2.0[mainbelt] (http://adsabs.harvard.edu/abs/2011ApJ...741...68M)  
geometric albedo albedo 0.108   0.028 urn:nasa:pds:neowise_diameters_albedos::2.0[mainbelt] (http://adsabs.harvard.edu/abs/2011ApJ...741...68M)  

97613 (2000 EK87)          Discovered 2000-Mar-08 by LINEAR at Socorro
Reference: 20050224/Numbers.arcLast Updated: 2005-02-28

[ show close-approach data ]
Ephemeris | Orbit Diagram | Orbital Elements | Mission Design | Physical Parameters | Discovery Circumstances | Close-Approach Data ]
ABOUT SSD CREDITS/AWARDS PRIVACY/COPYRIGHT GLOSSARY LINKS
FirstGov 2019-Oct-18 12:37 UT
(server date/time)  
NASA Home Page
Site Manager:   Ryan S. Park
Webmaster  Alan B. Chamberlin